DW2270 Weather Reports


Display with metric or nautical units.
time (UTC)temp
F
wind
direction
speed
MPH
gust
MPH
rain 1hr
in
rain 24hr
in
rain mn
in
humidity
%
barometer
mb
20260509232537 88 93 0.0 0.0 0.00 0.01 0.00 62 1007.2
20260509231542 88 93 0.0 0.0 0.00 0.01 0.00 63 1007.3
20260509230511 89 93 0.0 0.0 0.00 0.01 0.00 63 1007.2
20260509225510 90 93 0.0 2.0 0.00 0.01 0.00 62 1007.0
20260509223340 91 92 0.0 3.0 0.00 0.01 0.00 59 1007.0
20260509222317 91 187 0.0 1.0 0.00 0.01 0.00 58 1006.8
20260509221250 91 187 0.0 0.0 0.00 0.01 0.00 59 1006.7
20260509220250 90 187 0.0 1.0 0.00 0.01 0.00 59 1006.8
20260509215242 91 185 0.0 3.0 0.00 0.01 0.00 59 1006.8
20260509214229 92 182 0.0 3.0 0.00 0.01 0.00 59 1006.9
20260509213251 93 72 0.0 2.0 0.00 0.01 0.00 57 1006.8
20260509212226 92 92 0.0 0.0 0.00 0.01 0.00 56 1006.9
20260509211227 92 89 0.0 3.0 0.00 0.01 0.00 59 1006.9
20260509210244 93 89 0.0 2.0 0.00 0.01 0.00 58 1007.1
20260509204151 93 163 0.0 3.0 0.00 0.01 0.00 58 1007.3
20260509202020 91 166 1.0 5.0 0.00 0.01 0.00 59 1007.6
20260509201021 92 93 0.0 5.0 0.00 0.01 0.00 60 1007.6
20260509200001 91 96 0.0 5.0 0.00 0.01 0.00 60 1007.8
20260509193809 91 79 0.0 1.0 0.00 0.01 0.00 60 1008.1
20260509192744 90 79 0.0 1.0 0.00 0.01 0.00 61 1008.1
20260509191750 89 98 0.0 2.0 0.00 0.01 0.00 62 1008.2
20260509190754 89 321 0.0 2.0 0.00 0.01 0.00 62 1008.5
20260509185807 89 345 0.0 3.0 0.00 0.01 0.00 63 1008.6
20260509184818 88 117 0.0 5.0 0.00 0.01 0.00 63 1008.8
20260509183833 87 89 1.0 5.0 0.00 0.01 0.00 62 1008.9
20260509182800 87 138 0.0 4.0 0.00 0.01 0.00 61 1008.9
20260509181803 86 140 0.0 4.0 0.00 0.01 0.00 62 1009.2
20260509180757 86 95 0.0 2.0 0.00 0.01 0.00 60 1009.4
20260509175805 86 78 0.0 0.0 0.00 0.01 0.00 59 1009.5
20260509174754 85 279 0.0 1.0 0.00 0.01 0.00 58 1009.7
20260509173738 85 279 0.0 1.0 0.00 0.01 0.00 55 1009.7
20260509172724 85 324 0.0 1.0 0.00 0.01 0.00 54 1009.7
20260509171733 85 324 0.0 3.0 0.00 0.01 0.00 53 1009.6
20260509165619 83 331 0.0 0.0 0.00 0.01 0.00 26 1009.6
20260509164623 81 331 0.0 2.0 0.00 0.01 0.00 6 1009.7
20260509162458 79 90 0.0 2.0 0.00 0.01 0.00 1 1009.5
20260509161512 78 102 0.0 3.0 0.00 0.01 0.00 1 1009.7
20260509160509 78 93 0.0 2.0 0.00 0.01 0.00 1 1009.8
20260509155529 77 93 0.0 2.0 0.00 0.01 0.00 1 1010.1
20260509154551 77 93 0.0 2.0 0.00 0.01 0.00 1 1010.1
20260509153522 77 94 0.0 2.0 0.00 0.01 0.00 1 1010.1
20260509152525 77 94 0.0 1.0 0.00 0.01 0.00 1 1010.1
20260509151542 77 94 0.0 0.0 0.00 0.01 0.00 1 1010.1
20260509150510 77 94 0.0 0.0 0.00 0.01 0.00 1 1010.1
20260509145442 76 94 0.0 0.0 0.00 0.01 0.00 1 1009.9
20260509144421 76 94 0.0 2.0 0.00 0.01 0.00 1 1009.9
20260509143442 76 94 0.0 0.0 0.00 0.01 0.00 1 1009.7
20260509142413 76 94 0.0 0.0 0.00 0.01 0.00 1 1009.6
20260509141408 76 94 0.0 0.0 0.00 0.01 0.00 1 1009.3
20260509135248 76 94 0.0 0.0 0.00 0.01 0.00 1 1009.5
20260509134243 75 94 0.0 0.0 0.00 0.01 0.00 1 1009.7
20260509133305 75 94 0.0 0.0 0.00 0.01 0.00 1 1009.9
20260509131118 75 180 0.0 0.0 0.00 0.01 0.00 1 1010.0
20260509130141 75 180 0.0 0.0 0.00 0.01 0.00 1 1009.8
20260509124035 75 131 0.0 0.0 0.00 0.01 0.00 1 1009.8
20260509123013 74 131 0.0 0.0 0.00 0.01 0.00 1 1009.9
20260509122030 74 131 0.0 0.0 0.00 0.01 0.00 1 1009.7
20260509115918 74 131 0.0 1.0 0.00 0.01 0.00 1 1009.5
20260509114934 74 131 0.0 0.0 0.00 0.01 0.00 1 1009.3
20260509113944 74 131 0.0 0.0 0.00 0.01 0.00 1 1009.1
20260509112912 74 131 0.0 0.0 0.00 0.01 0.00 1 1009.2
20260509111844 74 131 0.0 0.0 0.00 0.01 0.00 1 1009.2
20260509110901 74 131 0.0 0.0 0.00 0.01 0.00 1 1009.1
20260509105914 74 131 0.0 0.0 0.00 0.01 0.00 1 1009.4
20260509104919 74 131 0.0 0.0 0.00 0.01 0.00 1 1009.4
20260509103943 74 131 0.0 0.0 0.00 0.01 0.00 1 1009.6
20260509101833 74 131 0.0 0.0 0.00 0.01 0.00 1 1009.3
20260509100818 74 131 0.0 0.0 0.00 0.01 0.00 1 1009.0
20260509095755 74 131 0.0 0.0 0.00 0.01 0.00 1 1008.6
20260509093612 74 131 0.0 0.0 0.00 0.01 0.00 1 1008.8
20260509092541 74 131 0.0 0.0 0.00 0.01 0.00 1 1009.1
20260509091603 74 131 0.0 0.0 0.00 0.01 0.00 1 1009.0
20260509090539 74 131 0.0 0.0 0.00 0.01 0.00 1 1009.1
20260509085505 74 131 0.0 0.0 0.00 0.01 0.00 1 1009.3
20260509083332 74 131 0.0 0.0 0.00 0.01 0.00 1 1009.3
20260509082332 74 131 0.0 0.0 0.00 0.01 0.00 1 1009.4
20260509081357 74 131 0.0 0.0 0.00 0.01 0.00 1 1009.4
20260509080339 74 131 0.0 0.0 0.00 0.01 0.00 1 1009.1
20260509075309 74 131 0.0 0.0 0.00 0.01 0.00 1 1009.3
20260509074321 74 131 0.0 0.0 0.00 0.01 0.00 1 1009.1
20260509073303 74 131 0.0 0.0 0.00 0.01 0.00 1 1009.0
20260509072312 74 131 0.0 0.0 0.00 0.01 0.00 1 1009.2
20260509071321 74 131 0.0 0.0 0.00 0.01 0.00 1 1009.2
20260509070318 74 127 0.0 0.0 0.00 0.01 0.00 1 1009.1
20260509065337 74 39 0.0 0.0 0.00 0.01 0.00 1 1009.3
20260509064401 74 147 0.0 0.0 0.00 0.01 0.00 1 1009.2
20260509063336 73 117 0.0 0.0 0.00 0.01 0.00 1 1009.2
20260509062314 73 117 0.0 0.0 0.00 0.01 0.00 1 1009.3
20260509061333 74 117 0.0 0.0 0.00 0.01 0.00 1 1009.6
20260509060353 74 117 0.0 0.0 0.00 0.01 0.00 1 1009.7
20260509055411 73 117 0.0 0.0 0.00 0.01 0.00 1 1009.7
20260509054416 73 117 0.0 1.0 0.00 0.01 0.00 1 1009.8
20260509053426 73 117 0.0 0.0 0.00 0.01 0.00 1 1009.8
20260509052422 73 117 0.0 0.0 0.00 0.01 0.00 1 1009.8
20260509051414 73 119 0.0 3.0 0.00 0.01 0.00 1 1009.8
20260509050356 73 28 0.0 1.0 0.00 0.01 0.00 1 1009.7
20260509045328 73 114 0.0 0.0 0.00 0.01 0.01 1 1009.9
20260509043141 73 127 0.0 2.0 0.00 0.01 0.01 1 1009.7
20260509042158 73 145 0.0 2.0 0.00 0.01 0.01 1 1009.7
20260509041129 73 126 0.0 0.0 0.00 0.01 0.01 1 1009.7
20260509040152 73 91 0.0 0.0 0.00 0.01 0.01 1 1009.8
20260509035127 73 35 0.0 2.0 0.00 0.01 0.01 1 1009.6
20260509032936 73 97 0.0 2.0 0.00 0.01 0.01 1 1009.5
20260509030831 74 53 0.0 2.0 0.00 0.01 0.01 1 1009.4
20260509025758 74 71 0.0 1.0 0.00 0.01 0.01 1 1009.4
20260509023643 74 5 0.0 2.0 0.00 0.01 0.01 1 1009.1
20260509020314 75 102 0.0 0.0 0.00 0.00 0.00 1 1009.0
20260509015306 75 102 0.0 1.0 0.00 0.00 0.00 2 1008.8
20260509013206 75 102 0.0 1.0 0.00 0.00 0.00 6 1009.0
20260509012146 75 102 0.0 0.0 0.00 0.00 0.00 9 1008.7
20260509011114 76 101 0.0 3.0 0.00 0.00 0.00 11 1008.7
20260509005123 76 306 0.0 0.0 0.00 0.00 0.00 14 1008.4
20260509004106 76 151 0.0 4.0 0.00 0.00 0.00 15 1008.3
20260509003039 76 144 0.0 6.0 0.00 0.00 0.00 17 1008.4
20260509002043 77 136 0.0 6.0 0.00 0.00 0.00 19 1008.7
20260509001040 77 192 0.0 2.0 0.00 0.00 0.00 21 1008.7
20260509000032 77 173 0.0 3.0 0.00 0.00 0.00 23 1008.6
20260508233905 77 146 0.0 2.0 0.00 0.00 0.00 25 1008.7